Middletown, OH

8:55 AM EDT on April 29, 2017 (GMT -0400)
Hook Field Municipal

Weather History for KMWO - July, 2013

Change the Weather History Date:

Sunday, July 14, 2013

  Actual Average (KFFO) Record (KFFO)
Temperature  
Mean Temperature 78 °F -  
Max Temperature 88 °F 82 °F 90 °F (2012)
Min Temperature 67 °F 61 °F 54 °F (2007)
Cooling Degree Days 12    
Growing Degree Days 28 (Base 50)    
Moisture  
Dew Point 73 °F    
Average Humidity 85    
Maximum Humidity 100    
Minimum Humidity 67    
Precipitation  
Precipitation 0.00 in - - ()
Sea Level Pressure  
Sea Level Pressure 30.20 in    
Wind  
Wind Speed 3 mph (ESE)    
Max Wind Speed 9 mph    
Max Gust Speed -    
Visibility 10 miles    
Events Rain    
Averages and records for this station are not official NWS values.
T = Trace of Precipitation, MM = Missing Value Source: NWS Daily Summary

Daily Weather History Graph

Daily Weather History Graph

Search for Another Location

Airport or City:

Trip Planner

Search our weather history database for the weather conditions in past years. The results will help you decide how hot, cold, wet, or windy it might be!

Date:

Astronomy

Jul. 14, 2013 Rise Set
Actual Time 6:22 AM EDT 9:04 PM EDT
Civil Twilight 5:50 AM EDT 9:35 PM EDT
Nautical Twilight 5:11 AM EDT 10:15 PM EDT
Astronomical Twilight 4:26 AM EDT 10:59 PM EDT
Moon 12:36 PM EDT (7/14) No Moon Set
Length of Visible Light 15h 45m
Length of Day
14h 42m
Waxing Crescent, 35% of the Moon is Illuminated
Jul 14
Waxing Crescent
Jul 15
First Quarter
Jul 22
Full
Jul 29
Last Quarter
Aug 6
New

Hourly Weather History & Observations

Time (EDT) Temp. Heat Index Dew Point Humidity Pressure Visibility Wind Dir Wind Speed Gust Speed Precip Events Conditions
12:15 AM 68.4 °F - 68.4 °F 100% 30.18 in 10.0 mi Calm Calm - N/A   Clear
12:35 AM 70.0 °F - 70.0 °F 100% 30.17 in 10.0 mi Calm Calm - N/A   Clear
12:55 AM 70.2 °F - 69.4 °F 98% 30.17 in 10.0 mi Calm Calm - N/A   Clear
1:15 AM 70.2 °F - 69.4 °F 98% 30.17 in 10.0 mi NNE 5.8 mph - N/A   Clear
1:35 AM 72.1 °F - 71.1 °F 96% 30.17 in 10.0 mi NE 4.6 mph - N/A   Clear
1:55 AM 71.2 °F - 70.2 °F 96% 30.17 in 10.0 mi NNE 4.6 mph - N/A   Clear
2:15 AM 70.2 °F - 69.1 °F 96% 30.17 in 10.0 mi NE 4.6 mph - N/A   Clear
2:35 AM 72.7 °F - 71.2 °F 95% 30.17 in 10.0 mi NNE 5.8 mph - N/A   Clear
2:55 AM 70.2 °F - 69.1 °F 96% 30.17 in 10.0 mi NNE 5.8 mph - N/A   Clear
3:15 AM 69.4 °F - 68.5 °F 97% 30.17 in 10.0 mi NNE 4.6 mph - N/A   Clear
3:35 AM 68.4 °F - 67.6 °F 98% 30.17 in 10.0 mi Calm Calm - N/A   Clear
3:55 AM 68.0 °F - 67.3 °F 98% 30.17 in 10.0 mi Calm Calm - N/A   Clear
4:15 AM 68.9 °F - 68.0 °F 97% 30.17 in 10.0 mi North 3.5 mph - N/A   Clear
4:35 AM 70.2 °F - 68.9 °F 96% 30.17 in 10.0 mi Calm Calm - N/A   Clear
4:55 AM 67.6 °F - 67.3 °F 99% 30.17 in 10.0 mi Calm Calm - N/A   Clear
5:15 AM 67.6 °F - 67.6 °F 100% 30.18 in 10.0 mi Calm Calm - N/A   Clear
5:35 AM 67.6 °F - 67.6 °F 100% 30.18 in 10.0 mi Calm Calm - N/A   Clear
5:55 AM 67.6 °F - 67.6 °F 100% 30.19 in 10.0 mi Calm Calm - N/A   Clear
6:15 AM 67.6 °F - 67.6 °F 100% 30.20 in 10.0 mi Calm Calm - N/A   Clear
6:35 AM 67.6 °F - 67.6 °F 100% 30.20 in 7.0 mi Calm Calm - N/A   Clear
6:55 AM 67.6 °F - 67.6 °F 100% 30.20 in 7.0 mi Calm Calm - N/A   Clear
7:15 AM 67.6 °F - 67.6 °F 100% 30.21 in 10.0 mi NNE 3.5 mph - N/A   Clear
7:35 AM 72.5 °F - 72.3 °F 99% 30.21 in 10.0 mi Calm Calm - N/A   Clear
7:55 AM 72.7 °F - 71.4 °F 96% 30.21 in 10.0 mi ENE 4.6 mph - N/A   Clear
8:15 AM 72.7 °F - 70.7 °F 93% 30.21 in 10.0 mi ENE 4.6 mph - N/A   Clear
8:35 AM 75.2 °F - 72.5 °F 91% 30.21 in 10.0 mi NE 4.6 mph - N/A   Clear
8:55 AM 75.2 °F - 72.0 °F 90% 30.21 in 10.0 mi NNE 3.5 mph - N/A   Clear
9:15 AM 77.9 °F - 72.5 °F 83% 30.22 in 10.0 mi SE 6.9 mph - N/A   Clear
9:35 AM 78.4 °F - 72.1 °F 81% 30.22 in 10.0 mi SE 5.8 mph - N/A   Clear
9:55 AM 79.0 °F - 72.3 °F 80% 30.22 in 10.0 mi SE 6.9 mph - N/A   Clear
10:15 AM 80.2 °F 84.7 °F 73.4 °F 80% 30.22 in 10.0 mi SE 6.9 mph - N/A   Clear
10:35 AM 80.4 °F 85.0 °F 73.4 °F 79% 30.22 in 10.0 mi SSE 8.1 mph - N/A   Clear
10:55 AM 80.6 °F 85.2 °F 73.2 °F 78% 30.21 in 10.0 mi SSE 8.1 mph - N/A   Clear
11:15 AM 81.3 °F 86.5 °F 73.6 °F 77% 30.22 in 10.0 mi SSE 5.8 mph - N/A   Clear
11:35 AM 81.9 °F 87.3 °F 73.4 °F 75% 30.21 in 10.0 mi SE 4.6 mph - N/A   Clear
11:55 AM 82.8 °F 89.0 °F 73.8 °F 74% 30.21 in 10.0 mi Calm Calm - N/A   Clear
12:15 PM 85.1 °F 94.1 °F 75.4 °F 73% 30.21 in 10.0 mi Calm Calm - N/A   Scattered Clouds
12:35 PM 87.8 °F 100.2 °F 77.5 °F 71% 30.21 in 10.0 mi Calm Calm - N/A   Scattered Clouds
12:55 PM 84.7 °F 93.2 °F 75.4 °F 73% 30.21 in 10.0 mi Calm Calm - N/A   Scattered Clouds
1:15 PM 87.8 °F 98.6 °F 75.9 °F 68% 30.21 in 10.0 mi Calm Calm - N/A   Scattered Clouds
1:35 PM 87.6 °F 100.3 °F 77.5 °F 72% 30.21 in 10.0 mi Calm Calm - N/A   Mostly Cloudy
1:55 PM 87.8 °F 98.1 °F 75.7 °F 67% 30.21 in 10.0 mi SSE 6.9 mph - N/A   Mostly Cloudy
2:15 PM 87.8 °F 99.1 °F 76.3 °F 69% 30.21 in 10.0 mi ESE 6.9 mph - N/A   Scattered Clouds
2:35 PM 87.8 °F 98.6 °F 76.1 °F 68% 30.21 in 10.0 mi Calm Calm - N/A   Mostly Cloudy
2:55 PM 87.8 °F 98.1 °F 75.7 °F 67% 30.21 in 10.0 mi SSE 9.2 mph - N/A   Mostly Cloudy
3:15 PM 87.8 °F 99.1 °F 76.3 °F 69% 30.20 in 10.0 mi SE 6.9 mph - N/A   Mostly Cloudy
3:35 PM 87.8 °F 98.1 °F 75.6 °F 67% 30.20 in 10.0 mi East 9.2 mph - N/A   Scattered Clouds
3:55 PM 87.8 °F 100.2 °F 77.5 °F 71% 30.20 in 10.0 mi Calm Calm - N/A   Mostly Cloudy
4:15 PM 87.8 °F 99.1 °F 76.3 °F 69% 30.20 in 10.0 mi East 8.1 mph - N/A   Scattered Clouds
4:35 PM 87.8 °F 100.8 °F 77.9 °F 72% 30.20 in 10.0 mi SE 8.1 mph - N/A   Mostly Cloudy
4:55 PM 87.8 °F 98.1 °F 75.6 °F 67% 30.19 in 10.0 mi ESE 5.8 mph - N/A   Scattered Clouds
5:15 PM 87.8 °F 98.6 °F 76.1 °F 68% 30.19 in 10.0 mi SE 8.1 mph - N/A   Scattered Clouds
5:35 PM 87.8 °F 100.2 °F 77.4 °F 71% 30.19 in 10.0 mi ESE 9.2 mph - N/A   Scattered Clouds
5:55 PM 88.0 °F 99.6 °F 76.5 °F 69% 30.19 in 10.0 mi ESE 9.2 mph - N/A   Scattered Clouds
6:15 PM 87.8 °F 100.8 °F 77.7 °F 72% 30.18 in 10.0 mi Calm Calm - N/A   Mostly Cloudy
6:35 PM 87.8 °F 99.1 °F 76.5 °F 69% 30.18 in 10.0 mi Calm Calm - N/A   Scattered Clouds
6:55 PM 87.8 °F 98.1 °F 75.6 °F 67% 30.18 in 10.0 mi SSE 6.9 mph - N/A   Clear
7:15 PM 87.8 °F 99.7 °F 76.8 °F 70% 30.18 in 10.0 mi ESE 9.2 mph - N/A   Scattered Clouds
7:35 PM 87.8 °F 100.2 °F 77.2 °F 71% 30.19 in 10.0 mi East 6.9 mph - N/A   Scattered Clouds
7:55 PM 87.8 °F 101.3 °F 78.1 °F 73% 30.19 in 10.0 mi ESE 6.9 mph - N/A   Clear
8:15 PM 87.8 °F 101.3 °F 78.1 °F 73% 30.20 in 10.0 mi Calm Calm - N/A   Clear
8:35 PM 87.8 °F 101.9 °F 78.4 °F 74% 30.20 in 10.0 mi East 3.5 mph - N/A   Clear
8:55 PM 84.4 °F 94.2 °F 76.8 °F 78% 30.20 in 10.0 mi Calm Calm - N/A   Clear
9:15 PM 81.1 °F 87.4 °F 75.6 °F 83% 30.21 in 10.0 mi Calm Calm - N/A Rain Light Rain
9:35 PM 77.4 °F - 75.9 °F 95% 30.23 in 7.0 mi SW 9.2 mph - N/A Rain Heavy Rain
9:55 PM 75.2 °F - 75.2 °F 100% 30.23 in 10.0 mi WSW 3.5 mph - N/A   Mostly Cloudy
10:15 PM 75.2 °F - 75.2 °F 100% 30.24 in 10.0 mi Calm Calm - N/A   Mostly Cloudy
10:35 PM 75.2 °F - 75.2 °F 100% 30.25 in 10.0 mi Calm Calm - N/A   Scattered Clouds
10:55 PM 73.9 °F - 73.9 °F 100% 30.25 in 10.0 mi Calm Calm - N/A   Clear
11:15 PM 72.7 °F - 72.7 °F 100% 30.25 in 10.0 mi Calm Calm - N/A   Clear
11:35 PM 72.7 °F - 72.7 °F 100% 30.25 in 10.0 mi Calm Calm - N/A   Clear
11:55 PM 72.7 °F - 72.7 °F 100% 30.25 in - Calm Calm - N/A   Unknown